User: anonymous   Login
Location: Carnetin
(48.9010°N, 2.7059°E)
Time: 20:33:00
(UTC+00:00)
Language:

Cosmos 2333 Rocket - Orbit

View from above orbital plane
View from above orbital plane
View from above satellite
View from above satellite

Ground track
Ground track

The orbit data is extracted from the following two-line orbital elements,

1 24298U 96051B   22017.46326456 -.00000063  00000-0 -75690-5 0  9997
2 24298  70.8202 129.4411 0018606 219.5823 140.3940 14.12402918308373
Epoch (UTC): 17 January 2022 11:07:06
Eccentricity: 0.0018606
inclination: 70.8202°
perigee height: 838 km
apogee height: 864 km
right ascension of ascending node: 129.4411°
argument of perigee: 219.5823°
revolutions per day: 14.12402918
mean anomaly at epoch: 140.3940°
orbit number at epoch: 30837

The dashed part of the orbit path shows where the satellite is in the earth's shadow,  

DLR